Regional Weather Roundup
Issued by NWS Charleston, SC

Current Version | Previous Version | Graphics & Text | Print | Product List | Glossary On
Versions: 1 2 3 4 5 6 7 8 9 10 11 12 13 14 15 16 17 18 19 20 21 22 23 24 25 26 27 28 29 30 31 32 33 34 35 36 37 38 39 40 41 42 43 44 45 46 47 48 49 50
000 ASUS42 KCHS 090227 RWRCHS REGIONAL WEATHER ROUNDUP NATIONAL WEATHER SERVICE CHARLESTON SC 900 PM EST THU DEC 08 2016 NOTE: "FAIR" INDICATES FEW OR NO CLOUDS BELOW 12,000 FEET WITH NO SIGNIFICANT WEATHER AND/OR OBSTRUCTIONS TO VISIBILITY. NOT ALL STATIONS ARE QUALITY CONTROLLED. USE DATA WITH CAUTION... ESPECIALLY DEWPOINT OBSERVATIONS. SCZ027-030-031-034>040-042>050-090300- ...SOUTHEAST SOUTH CAROLINA... CITY SKY/WX TMP DP RH WIND PRES REMARKS N CHARLESTON CLOUDY 51 37 58 N12 30.22R WATERFRONT PRK N/A 56 47 71 NW7 30.21R MOUNT PLEASANT FAIR 54 45 71 N7 30.22S JOHNS ISLAND FAIR 54 41 62 NW7 30.23R PINOPOLIS N/A 54 43 66 N15 30.14R MONCKS CORNER CLOUDY 52 36 54 N7 30.24R SUMMERVILLE MOCLDY 50 32 50 NW8 30.26R BEAUFORT MCAS PTCLDY 54 44 69 N13 30.24R BEAUFORT ARPT FAIR 54 43 66 N12G21 30.24R HILTON HEAD IS CLOUDY 55 45 67 NW10G17 30.24R WALTERBORO MOCLDY 50 32 50 N6 30.27R ALLENDALE FAIR 46 32 57 NW3 30.26S ...SOUTHERN MIDLANDS AND PEE DEE... CITY SKY/WX TMP DP RH WIND PRES REMARKS GEORGETOWN NOT AVBL KINGSTREE CLOUDY 46 34 61 NW3 30.24S ORANGEBURG MOCLDY 47 27 45 NW3 30.26R BARNWELL NOT AVBL AIKEN FAIR 43 32 65 W7 30.30S MANNING CLOUDY 48 32 53 N5 30.25R COLUMBIA MOCLDY 47 22 37 NW5 30.26R SUMTER MOCLDY 47 28 48 NW6 30.23R FLORENCE PTCLDY 48 27 44 N9 30.23R MYRTLE BEACH CLEAR 50 36 57 N12 30.24R N MYRTLE BEACH PTCLDY 47 34 60 N5 30.22R $$ GAZ063-065-086>088-099>101-113>116-118-119-134>141-150-090300- ...SOUTHEAST GEORGIA... CITY SKY/WX TMP DP RH WIND PRES REMARKS SAVANNAH ARPT CLOUDY 53 34 48 NW12G18 30.24S HUNTER AAF PTCLDY 55 41 60 NW16 30.21R FORT STEWART PTCLDY 53 30 42 NW12 30.23R STATESBORO MOCLDY 48 29 48 NW10G16 30.28S SYLVANIA CLOUDY N/A N/A N/A NW7 30.28S CLAXTON FAIR 49 28 44 W8 30.28S ...CSRA...CENTRAL AND FAR SOUTHEAST GEORGIA... CITY SKY/WX TMP DP RH WIND PRES REMARKS THOMSON PTCLDY 45 27 49 NW3 30.34R AUGUSTA-BUSH PTCLDY 48 24 39 NW8 30.28R AUGUSTA-DANIEL PTCLDY 47 22 37 NW7 30.28R SWAINSBORO FAIR 43 30 61 NW7 30.30S VIDALIA PTCLDY 46 32 57 NW9 30.29S EASTMAN FAIR 45 10 24 CALM 30.36R HAZLEHURST FAIR 49 27 41 NW5 30.29S ALMA CLOUDY 51 27 39 N9G22 30.28 WAYCROSS PTCLDY 54 33 44 N13 30.27R JESUP FAIR 54 34 47 N9 30.26R BAXLEY FAIR 50 32 50 NW8 30.28R BRUNSWICK PTCLDY 54 43 66 NW3 30.25R SAINT SIMONS PTCLDY 56 40 55 NW8 30.23R $$ SCZ027-028-034-036>038-045-046-048>050-GAZ119-141-090300- ...LAKE AND SUPPLEMENTAL COASTAL OBSERVATIONS... STATION/POSITION TIME TEMP WIND PRES WAVE SWELL AIR SEA DIR/SP/G HT/PER HT/PER/DIR (UTC) (F) (DEG/KT/KT) (MB) (FT/S) (FT/S/D) WINYAH BAY 0145 51 350/ 4 1023.0R LAKE MURRAY 0150 44 330/ 1/ 6 1024.0R ACE BASIN NERRS 0145 54 340/ 3 1023.0S FORT PULASKI 0200 55 62 340/ 11/ 15 1023.7 SAPELO ISLAND 0200 55 330/ 10 1024.0 $$ ANZ835-935-AMZ111-154-330-350-352-354-370-450-454-472-090300- ...C-MAN AND BUOY OBSERVATIONS... STATION/POSITION TIME TEMP WIND PRES WAVE SWELL AIR SEA DIR/SP/G HT/PER HT/PER/DIR (UTC) (F) (DEG/KT/KT) (MB) (FT/S) (FT/S/D) BUOY 41004 0150 60 73 340/ 19/ 25 1021.4R 4/ 5 BUOY 41008 0150 61 64 340/ 17/ 21 1022.5R 3/ 4 2/ 80/10 FOLLY BEACH CMAN 0200 54 340/ 8/ 10 1023.5R CAPERS NEARSHORE 0108 56 61 340/ 14/ 19 1022.5R FRIPP NEARSHORE 0208 57 62 350/ 12/ 17 1023.0S STATION/POSITION TIME TEMP WIND PRES WAVE SWELL AIR SEA DIR/SP/G HT/PER HT/PER/DIR (UTC) (F) (DEG/KT/KT) (MB) (FT/S) (FT/S/D) 5E ST. MARYS GA 0200 65 N/A 2/11 FRYING PAN BUOY 0210 56 73 340/ 21/ 25 1022.3 BUOY 41025 0150 53 77 320/ 21/ 27 1019.9R 5/ 5 2/ 80/ 8 CAPE LOOKOUT NC 0200 49 320/ 13/ 16 1021.3R BUOY 41002 0150 73 74 310/ 16/ 17 1017.3R 4/ 5 2/ 40/ 8 BUOY 41010 NOT AVBL ST AUGUSTINE FL 0200 60 67 340/ 13/ 15 1023.8R $$

USA.gov is the U.S. government's official web portal to all federal, state and local government web resources and services.